Location: Unspecified
(50.0830°N, 0.0000°E)
Time: 16:24:49
(UTC+00:00)

N. Korean satellite - Pass Details

Date: 22 November 2019
Orbit: 456 x 506 km, 97.2° (Epoch: 06 December)

Event Time Altitude Azimuth Distance (km) Brightness Sun altitude
Rises 06:23:11 0° 8° (N) 2,619 10.2 -9.6°
Reaches altitude 10° 06:25:19 10° 4° (N) 1,725 9.2 -9.2°
Maximum altitude 06:28:56 52° 288° (WNW) 628 6.7 -8.7°
Drops below altitude 10° 06:32:29 10° 211° (SSW) 1,689 9.2 -8.2°
Sets 06:34:34 0° 207° (SSW) 2,558 10.2 -7.9°
